Temp
-1 -2 -1 -1 -1 -2 -2 -2 -2 -2 -2 -3 -2 -2 -2 -2 -2 -2 -2 -2 -2 -2 -2 -2 -2 -2 -2 -3 -3 -2 -3 -3 -4 -3 -3 -2 -2 -2 -1 -1 -1 -1 -1 0
-2 -2 -2 -2 -2 -2 -2 -2 -2 -3 -3 -3 -3 -3 -2 -2 -2 -2 -2 -2 -2 -2 -2 -2 -2 -2 -2 -2 -2 -3 -2 -3 -4 -4 -3 -3 -3 -2 -1 -1 -1 -1 -2 -0
-3 -3 -2 -2 -3 -3 -3 -2 -3 -3 -3 -4 -3 -3 -3 -3 -3 -2 -2 -2 -2 -2 -2 -2 -3 -2 -2 -2 -2 -2 -2 -2 -2 -2 -2 -1 -3 -2 -1 -2 -2 -1 -0 0
-3 -3 -2 -2 -3 -3 -3 -3 -3 -3 -4 -4 -4 -4 -3 -3 -3 -3 -3 -3 -2 -3 -3 -2 -3 -3 -2 -2 -2 -2 -2 -2 -2 -2 -2 -2 -1 -1 -2 -2 -2 -2 0 0
-3 -3 -3 -3 -4 -4 -3 -4 -4 -4 -4 -4 -4 -4 -3 -4 -4 -4 -4 -4 -3 -3 -3 -3 -3 -2 -2 -2 -2 -2 -2 -2 -2 -2 -2 -2 -2 -2 -2 -2 -2 -2 -0 0
-4 -4 -4 -4 -4 -4 -4 -4 -4 -4 -5 -5 -4 -4 -4 -4 -4 -4 -4 -4 -3 -3 -3 -3 -3 -3 -3 -3 -3 -3 -3 -3 -3 -3 -3 -3 -2 0 -1 -0 -0 -0 -1 0
-4 -4 -4 -5 -5 -5 -5 -5 -5 -5 -5 -5 -4 -5 -4 -4 -4 -4 -4 -4 -3 -3 -3 -3 -3 -3 -3 -3 -3 -3 -3 -3 -3 -4 -4 -6 -0 -0 -0 -0 0 -0 -0 -0
-3 -4 -5 -5 -6 -6 -6 -6 -6 -6 -5 -5 -5 -5 -4 -4 -4 -4 -4 -4 -4 -4 -3 -3 -3 -3 -4 -4 -4 -4 -4 -4 -4 -4 -4 -2 -0 -0 -0 -0 1 0 0 -1
-3 -4 -5 -6 -6 -6 -7 -6 -6 -6 -7 -6 -6 -5 -4 -4 -4 -5 -5 -4 -4 -4 -4 -3 -3 -2 -3 -3 -4 -4 -4 -4 -4 -4 -4 -4 -1 -1 -1 -1 -0 0 0 -0
-3 -4 -4 -6 -6 -7 -7 -7 -7 -7 -7 -7 -6 -6 -5 -5 -5 -4 -4 -4 -4 -4 -4 -4 -3 -3 -3 -3 -3 -4 -4 -4 -4 -4 -4 -3 -2 -2 -1 -2 -0 0 1 -0
-3 -4 -5 -5 -6 -6 -7 -7 -7 -7 -7 -7 -7 -7 -6 -6 -5 -5 -5 -5 -5 -5 -5 -4 -3 -3 -3 -3 -3 -3 -3 -4 -4 -4 -4 -4 -2 -2 -2 -1 -1 -0 0 -0
-3 -4 -4 -5 -6 -7 -7 -8 -8 -8 -7 -7 -7 -7 -6 -6 -6 -5 -6 -6 -7 -6 -6 -5 -5 -4 -4 -3 -3 -3 -3 -2 -3 -3 -2 -2 -2 -2 -2 -2 -2 -1 -1 -1
-4 -4 -4 -5 -7 -7 -8 -8 -9 -8 -8 -7 -8 -7 -7 -7 -6 -6 -6 -6 -6 -6 -6 -6 -5 -5 -5 -4 -3 -3 -3 -3 -3 -3 -2 -3 -2 -2 -2 -2 -2 -2 -2 -2
-4 -4 -5 -5 -6 -7 -8 -8 -8 -8 -8 -8 -8 -8 -8 -7 -7 -6 -6 -6 -5 -5 -6 -6 -6 -6 -5 -5 -4 -4 -3 -3 -3 -3 -3 -2 -2 -2 -2 -2 -2 -2 -2 -2
-4 -4 -4 -5 -6 -7 -8 -8 -8 -8 -8 -8 -9 -8 -8 -8 -8 -7 -7 -6 -6 -6 -5 -6 -6 -6 -6 -5 -5 -5 -4 -4 -4 -3 -3 -2 -2 -2 -2 -2 -2 -2 -2 -2
-4 -4 -4 -5 -6 -7 -7 -8 -8 -7 -7 -7 -8 -8 -8 -8 -8 -7 -7 -6 -6 -5 -5 -5 -5 -5 -7 -8 -6 -4 -4 -4 -4 -4 -4 -3 -3 -3 -3 -3 -3 -3 -3 -3
-3 -3 -4 -5 -6 -7 -7 -8 -7 -6 -6 -6 -7 -8 -8 -7 -7 -6 -6 -5 -5 -6 -6 -5 -6 -6 -8 -8 -7 -6 -5 -5 -5 -4 -5 -4 -3 -4 -3 -3 -3 -3 -3 -3
-3 -3 -4 -5 -5 -6 -7 -7 -6 -6 -6 -7 -8 -8 -8 -7 -6 -5 -5 -5 -6 -6 -6 -6 -7 -7 -8 -7 -6 -7 -6 -5 -5 -4 -4 -4 -4 -4 -4 -3 -3 -3 -2 -2
-3 -3 -4 -5 -5 -6 -6 -6 -6 -7 -6 -8 -8 -8 -8 -7 -6 -5 -5 -6 -6 -7 -6 -6 -7 -7 -8 -8 -9 -9 -9 -8 -5 -4 -4 -4 -4 -4 -4 -3 -3 -3 -2 -2
-3 -3 -3 -5 -5 -5 -5 -6 -6 -7 -7 -7 -8 -7 -7 -7 -7 -7 -7 -7 -7 -7 -7 -7 -7 -6 -6 -6 -8 -8 -8 -6 -6 -5 -5 -5 -4 -4 -4 -4 -3 -2 -2 -2
-3 -3 -4 -5 -5 -5 -6 -6 -7 -7 -7 -7 -7 -7 -7 -7 -7 -7 -8 -7 -7 -8 -7 -7 -7 -6 -6 -6 -6 -6 -6 -7 -7 -5 -5 -5 -5 -5 -4 -4 -3 -2 -2 -2
-3 -4 -4 -4 -5 -6 -6 -7 -7 -8 -7 -7 -7 -7 -7 -6 -7 -7 -7 -7 -7 -6 -7 -7 -6 -6 -6 -6 -6 -6 -6 -6 -5 -5 -5 -5 -5 -5 -4 -4 -3 -2 -2 -1
-4 -4 -4 -5 -6 -6 -6 -7 -7 -8 -8 -8 -7 -7 -6 -7 -7 -7 -7 -7 -6 -6 -6 -6 -6 -6 -6 -6 -6 -5 -5 -5 -5 -5 -5 -5 -5 -5 -5 -5 -4 -4 -3 -3
-5 -5 -5 -5 -6 -6 -6 -7 -7 -8 -8 -8 -8 -7 -7 -7 -8 -8 -7 -7 -6 -6 -6 -6 -6 -6 -6 -5 -5 -5 -5 -5 -5 -5 -5 -5 -5 -5 -5 -5 -5 -5 -6 -6
-6 -6 -5 -6 -7 -7 -7 -7 -8 -8 -8 -8 -8 -7 -6 -7 -8 -8 -7 -7 -6 -7 -8 -8 -7 -7 -6 -6 -7 -7 -6 -5 -5 -5 -5 -5 -5 -6 -5 -5 -5 -5 -5 -5
-6 -6 -6 -6 -7 -8 -8 -8 -8 -8 -8 -8 -8 -8 -7 -8 -8 -8 -7 -7 -7 -9 -9 -8 -8 -8 -7 -7 -7 -6 -6 -6 -6 -7 -6 -5 -5 -6 -6 -5 -5 -5 -5 -5
-7 -8 -7 -7 -8 -8 -8 -8 -9 -9 -9 -10 -9 -9 -9 -8 -8 -8 -7 -8 -9 -8 -9 -8 -8 -8 -7 -7 -7 -6 -6 -6 -6 -6 -5 -5 -5 -5 -5 -5 -5 -5 -5 -5
Height
3054 3048 3043 3037 3031 3028 3027 3028 3027 3026 3026 3029 3025 3027 3029 3030 3030 3030 3030 3032 3033 3035 3036 3037 3037 3039 3040 3043 3044 3046 3048 3050 3054 3058 3059 3063 3064 3068 3072 3072 3073 3071 3069 3065
3052 3047 3040 3034 3029 3027 3026 3027 3026 3025 3026 3028 3028 3029 3030 3032 3031 3031 3031 3032 3033 3034 3035 3038 3038 3040 3042 3043 3045 3047 3048 3050 3053 3057 3060 3058 3058 3061 3065 3067 3067 3065 3066 3063
3051 3045 3038 3034 3030 3027 3026 3025 3026 3025 3026 3027 3030 3030 3031 3032 3032 3032 3032 3033 3033 3034 3035 3036 3037 3039 3040 3042 3045 3046 3047 3047 3048 3049 3049 3050 3051 3054 3059 3062 3063 3061 3059 3060
3050 3043 3038 3033 3028 3026 3027 3025 3025 3024 3025 3027 3029 3031 3032 3033 3033 3032 3032 3033 3034 3035 3036 3036 3036 3038 3039 3041 3043 3044 3045 3045 3047 3047 3047 3048 3049 3051 3053 3053 3056 3057 3058 3058
3048 3042 3037 3033 3029 3027 3026 3027 3028 3027 3026 3027 3028 3030 3032 3032 3032 3033 3032 3033 3034 3035 3035 3036 3036 3037 3038 3039 3041 3042 3043 3044 3044 3045 3046 3046 3047 3047 3048 3049 3051 3052 3054 3054
3047 3041 3037 3034 3029 3027 3025 3024 3026 3027 3027 3026 3026 3028 3030 3031 3032 3033 3033 3033 3033 3034 3036 3036 3037 3037 3037 3038 3039 3039 3041 3042 3043 3043 3044 3044 3043 3038 3039 3040 3042 3044 3046 3049
3045 3041 3037 3034 3030 3027 3025 3024 3025 3026 3027 3026 3025 3027 3028 3029 3030 3031 3032 3033 3033 3034 3034 3035 3036 3037 3037 3037 3037 3038 3038 3040 3041 3041 3042 3043 3033 3032 3033 3033 3035 3037 3039 3043
3044 3040 3037 3033 3031 3029 3026 3024 3023 3022 3024 3025 3025 3025 3026 3027 3028 3029 3031 3032 3033 3033 3034 3034 3035 3036 3037 3036 3036 3037 3037 3038 3039 3039 3038 3033 3030 3029 3029 3028 3029 3029 3033 3038
3044 3040 3037 3033 3030 3027 3024 3022 3020 3018 3020 3022 3021 3022 3023 3025 3026 3028 3028 3030 3031 3033 3033 3034 3034 3034 3034 3035 3034 3035 3036 3037 3039 3038 3037 3032 3028 3027 3027 3026 3025 3024 3027 3032
3044 3039 3035 3031 3027 3023 3021 3020 3019 3018 3016 3016 3017 3018 3019 3021 3022 3024 3025 3026 3028 3030 3030 3032 3033 3033 3033 3032 3032 3032 3034 3034 3034 3035 3034 3027 3025 3025 3025 3027 3028 3022 3023 3025
3043 3039 3034 3030 3026 3023 3020 3017 3015 3015 3013 3012 3011 3014 3015 3017 3019 3020 3022 3026 3026 3027 3028 3030 3030 3030 3030 3029 3029 3028 3029 3030 3030 3032 3032 3026 3023 3024 3026 3026 3023 3022 3021 3024
3042 3038 3035 3029 3025 3021 3018 3016 3012 3009 3008 3008 3008 3008 3010 3013 3015 3018 3018 3021 3022 3024 3025 3026 3027 3027 3027 3026 3026 3025 3027 3025 3025 3026 3023 3023 3022 3022 3023 3023 3024 3024 3025 3026
3042 3038 3034 3029 3024 3021 3019 3015 3012 3009 3004 3003 3003 3004 3006 3007 3010 3013 3016 3018 3020 3021 3022 3024 3024 3024 3024 3022 3021 3022 3021 3022 3021 3021 3019 3019 3020 3020 3021 3022 3023 3024 3025 3026
3040 3036 3032 3027 3024 3021 3019 3016 3012 3008 3005 3004 3004 3002 3003 3004 3005 3009 3011 3014 3016 3017 3018 3018 3017 3018 3018 3015 3016 3016 3017 3018 3017 3015 3016 3017 3017 3017 3018 3018 3019 3021 3023 3024
3039 3034 3029 3025 3022 3020 3018 3016 3012 3008 3007 3004 3003 3003 3003 3004 3004 3005 3008 3011 3012 3012 3012 3011 3011 3010 3011 3008 3006 3002 3009 3010 3011 3010 3013 3013 3013 3013 3014 3015 3016 3017 3019 3020
3038 3032 3027 3023 3020 3019 3018 3017 3014 3009 3008 3008 3007 3008 3007 3006 3006 3007 3007 3008 3009 3009 3007 3005 3003 3004 3004 2995 2986 2989 2998 3004 3005 3005 3008 3009 3009 3010 3011 3011 3012 3013 3014 3015
3039 3034 3028 3024 3020 3018 3018 3018 3016 3012 3011 3011 3010 3010 3010 3009 3007 3006 3005 3005 3005 3004 3001 2998 2997 2997 2993 2982 2975 2983 2985 2985 2989 2995 2999 3002 3005 3005 3006 3007 3008 3008 3008 3009
3039 3035 3029 3024 3021 3019 3018 3018 3016 3014 3015 3013 3015 3014 3012 3010 3007 3005 3003 3001 3000 2997 2996 2994 2991 2989 2984 2973 2968 2968 2976 2978 2983 2988 2993 2997 2999 3000 3001 3002 3002 3003 3003 3003
3040 3036 3031 3026 3024 3022 3020 3019 3017 3017 3020 3019 3019 3016 3013 3010 3006 3003 3000 2997 2995 2992 2991 2990 2988 2984 2977 2969 2966 2964 2964 2968 2975 2980 2984 2988 2992 2993 2995 2995 2997 2998 2998 2998
3040 3036 3031 3026 3025 3024 3023 3022 3020 3020 3020 3019 3018 3016 3013 3010 3005 3001 3000 2996 2994 2990 2989 2988 2985 2979 2975 2969 2966 2966 2965 2967 2969 2972 2979 2982 2985 2988 2989 2990 2991 2992 2992 2992
3040 3037 3033 3030 3027 3026 3024 3025 3023 3023 3022 3020 3017 3014 3010 3008 3005 3002 3000 2997 2995 2991 2990 2987 2983 2980 2977 2973 2970 2968 2968 2968 2970 2973 2976 2979 2982 2983 2985 2985 2986 2986 2986 2986
3038 3037 3035 3032 3029 3028 3029 3027 3027 3025 3024 3021 3017 3014 3009 3007 3004 3002 3000 2997 2995 2991 2989 2986 2983 2980 2976 2972 2969 2968 2968 2969 2970 2971 2974 2977 2979 2980 2981 2982 2981 2981 2979 2978
3036 3034 3033 3032 3032 3031 3029 3029 3027 3026 3023 3020 3017 3014 3010 3006 3004 3001 3000 2996 2993 2991 2988 2985 2983 2980 2976 2971 2968 2966 2966 2966 2968 2971 2972 2974 2976 2978 2979 2978 2977 2975 2973 2972
3033 3031 3030 3030 3029 3029 3028 3027 3026 3024 3021 3018 3015 3012 3010 3005 3003 3001 2998 2995 2991 2988 2986 2985 2983 2979 2974 2970 2968 2966 2965 2965 2966 2967 2969 2971 2974 2976 2977 2976 2975 2974 2973 2972
3031 3030 3028 3029 3030 3029 3027 3025 3023 3022 3020 3017 3013 3010 3009 3005 3003 3002 2998 2993 2988 2986 2988 2985 2980 2976 2973 2970 2967 2966 2965 2965 2965 2965 2967 2969 2972 2973 2975 2975 2974 2973 2973 2972
3030 3027 3025 3025 3026 3026 3024 3022 3020 3019 3017 3015 3013 3010 3008 3006 3005 3003 2999 2993 2987 2988 2984 2982 2979 2976 2973 2970 2968 2966 2964 2964 2964 2964 2965 2967 2969 2970 2971 2972 2972 2972 2971 2970
3025 3025 3023 3022 3022 3022 3021 3019 3017 3015 3015 3013 3012 3010 3008 3005 3002 2999 2996 2993 2989 2985 2983 2980 2977 2975 2973 2969 2967 2965 2963 2961 2962 2962 2962 2964 2966 2966 2967 2968 2968 2968 2968 2967
Wind_Speed
30 32 29 27 19 11 6 4 2 4 5 7 9 11 12 11 12 11 10 7 8 6 7 7 5 6 7 9 13 13 9 8 10 17 17 26 28 28 29 13 6 6 3 4
29 30 28 26 21 11 3 3 2 3 5 3 8 9 10 7 5 6 6 4 2 9 5 3 3 5 10 16 13 11 9 10 10 4 10 21 33 32 34 23 11 9 3 3
28 30 28 26 22 13 4 1 3 4 8 7 4 6 3 2 3 2 0 2 5 7 5 2 6 5 10 13 10 9 8 13 7 13 5 15 28 36 35 34 20 15 16 9
27 28 28 25 21 14 7 3 4 6 6 10 5 6 5 1 1 1 1 3 7 6 1 1 3 5 9 11 9 10 10 9 10 10 6 8 12 25 27 30 27 24 17 16
27 27 27 25 22 15 8 6 3 2 2 7 7 8 7 4 3 2 3 2 6 7 5 3 6 3 9 9 10 9 12 7 11 12 10 10 12 14 24 34 33 33 20 19
27 27 26 25 22 18 10 5 4 2 2 8 8 7 6 3 4 2 6 4 6 11 6 5 5 5 3 5 6 11 10 9 8 5 7 9 14 24 26 24 30 34 37 28
28 27 25 24 21 19 14 6 2 1 5 9 10 10 10 7 5 3 5 7 3 5 5 7 7 8 9 8 8 7 7 7 7 3 4 2 6 6 7 17 26 25 28 29
27 26 24 23 21 19 15 11 7 7 6 10 10 10 9 8 8 5 6 5 4 4 3 3 3 1 2 6 7 8 7 6 4 3 7 13 14 10 12 12 13 24 24 20
25 26 25 22 20 19 17 15 11 8 12 8 7 9 11 10 9 6 8 9 9 5 5 5 3 3 3 4 3 10 13 9 6 6 4 4 2 3 6 8 15 10 16 24
24 25 27 25 22 19 17 15 13 10 7 15 13 10 9 10 13 14 13 9 8 8 9 6 5 6 5 4 6 6 12 16 17 12 6 10 11 6 5 5 4 6 12 22
22 24 26 25 23 21 19 17 13 10 10 11 14 22 13 11 10 11 14 10 9 9 8 6 8 8 8 11 10 8 7 9 12 14 6 9 3 4 7 5 3 1 5 18
21 24 25 26 23 22 20 19 19 15 11 13 13 13 21 17 13 13 12 9 6 8 8 8 6 8 7 10 8 12 10 12 6 11 5 5 5 7 8 8 3 3 5 9
18 21 24 25 24 22 18 20 18 22 14 4 5 8 12 18 18 17 15 14 13 14 14 13 12 13 12 15 17 18 19 15 15 11 12 16 13 11 11 8 10 6 6 8
17 20 22 24 24 18 18 18 17 22 13 8 6 4 6 11 20 20 16 14 13 14 18 23 25 26 19 25 25 22 17 17 23 26 23 19 14 10 8 9 10 13 13 12
18 21 22 24 23 16 16 17 19 21 13 9 10 13 13 11 8 13 22 19 19 19 18 19 24 30 34 38 38 38 31 27 22 25 17 14 11 12 13 12 10 10 11 13
21 21 21 21 20 16 16 18 20 19 14 12 9 13 12 10 9 7 1 4 8 12 16 19 20 20 25 24 39 40 41 32 28 28 25 24 17 12 11 11 12 14 17 19
21 23 22 22 21 18 15 15 19 13 10 5 5 6 13 15 12 10 6 7 12 16 18 19 18 20 22 36 45 34 20 35 39 35 24 28 22 20 15 16 18 18 19 20
21 21 22 23 23 19 16 15 17 14 8 10 13 9 8 19 15 13 8 10 13 16 15 16 19 19 23 28 31 27 30 15 19 26 26 22 22 22 21 20 19 17 16 14
21 22 21 22 21 20 18 16 17 16 14 12 16 22 14 24 18 15 16 15 13 11 11 11 14 18 11 23 15 12 18 34 14 23 31 18 17 17 16 17 18 17 17 17
19 21 21 19 18 16 19 17 14 10 12 19 22 19 23 24 20 14 15 9 9 9 8 14 10 13 20 18 6 8 15 22 6 7 8 10 13 15 17 18 20 18 18 18
16 19 17 14 11 13 10 11 10 11 9 15 23 23 22 20 20 15 5 7 7 5 6 9 5 8 22 10 10 8 13 22 19 8 11 8 9 9 11 13 16 17 18 19
14 16 15 11 10 8 7 9 9 7 9 21 24 25 24 16 13 9 6 6 5 4 9 6 4 19 24 18 11 14 15 12 7 10 10 10 7 8 7 8 11 14 17 19
13 12 8 5 4 6 6 8 8 11 17 21 23 26 24 14 9 7 5 5 6 11 4 4 7 21 24 15 12 6 9 7 10 10 9 7 5 4 1 4 5 9 11 11
13 9 5 2 0 3 6 9 10 13 15 18 21 23 24 15 10 5 6 7 8 4 3 4 19 24 20 16 9 8 8 8 11 11 9 7 13 9 5 5 5 7 10 11
13 7 4 3 6 10 9 10 11 13 16 18 20 22 18 12 6 6 8 5 5 1 18 23 22 23 21 17 9 6 6 6 7 9 10 16 16 11 5 1 3 6 4 7
18 8 7 7 10 12 13 14 13 14 16 18 20 13 6 5 11 8 7 11 3 29 33 28 23 25 26 17 10 6 6 7 9 10 15 20 18 13 8 5 5 8 11 13
11 12 10 10 14 16 16 16 15 16 17 17 17 7 4 8 7 9 9 21 33 34 32 28 28 27 25 22 17 13 10 10 11 12 14 18 15 11 13 9 9 11 14 18
Wind_Direction
339 338 346 345 350 330 338 307 332 38 86 58 74 111 121 105 80 75 85 115 109 95 112 83 101 132 141 123 132 144 145 168 149 190 204 204 198 205 204 207 207 231 263 261
341 344 345 347 350 342 320 277 212 119 118 92 79 128 135 115 87 66 77 103 143 142 132 124 154 155 155 165 162 176 164 158 123 146 204 208 211 211 212 216 212 229 196 225
349 352 352 354 356 346 327 217 227 135 152 144 151 126 156 205 321 12 105 106 133 155 162 159 194 174 172 183 192 193 187 178 191 194 198 205 209 215 220 222 228 232 245 224
356 358 3 1 0 353 340 339 220 182 150 161 157 170 177 229 313 31 102 151 146 110 189 141 192 188 161 174 195 210 209 207 197 195 203 203 218 217 215 220 221 210 226 211
1 2 5 6 5 0 356 357 317 260 168 157 153 160 178 204 230 138 93 100 172 167 154 185 216 263 216 218 215 206 214 215 211 223 235 236 235 224 219 227 230 232 220 219
9 8 5 8 8 4 4 4 353 211 195 157 170 191 194 218 190 148 181 154 166 190 188 195 233 215 221 219 231 217 215 219 201 209 227 259 268 245 235 237 235 231 228 224
11 12 8 4 5 5 4 353 352 224 222 191 201 207 223 218 184 204 182 165 176 191 221 215 216 225 242 249 244 218 228 211 200 198 201 262 249 250 244 244 248 242 235 230
13 11 10 4 358 356 357 357 333 251 248 234 230 236 236 211 200 194 209 188 149 148 149 121 100 146 243 251 238 215 222 205 197 219 226 279 272 275 266 254 260 237 230 223
13 8 5 2 355 349 345 338 335 333 245 236 238 238 234 227 219 208 217 218 212 206 193 177 212 226 230 209 244 212 205 218 217 209 249 247 257 321 303 255 269 241 222 214
12 8 5 358 355 352 346 331 324 317 309 244 248 237 236 228 220 222 229 226 215 211 213 208 231 242 244 229 208 207 208 223 225 229 260 274 249 287 277 207 275 252 237 204
11 8 5 1 356 354 350 340 333 311 291 281 255 237 234 229 226 221 236 243 231 209 213 224 224 245 243 244 246 244 222 204 221 228 244 264 235 233 226 251 271 338 174 185
10 7 3 2 357 352 355 355 352 339 311 275 269 258 237 234 231 226 224 221 186 218 207 220 224 243 242 248 248 240 245 236 212 215 243 272 267 281 287 243 219 176 167 175
8 4 4 5 357 356 3 1 2 359 357 310 273 259 242 229 228 229 234 233 238 239 239 236 245 252 258 251 251 254 250 254 239 253 259 261 263 269 290 274 230 198 206 211
20 15 12 8 4 2 4 4 8 4 7 25 355 330 261 244 227 226 229 237 246 256 260 255 253 250 256 252 250 245 242 250 256 266 266 259 259 267 270 257 241 240 241 237
32 29 21 12 8 6 5 6 7 12 19 44 58 68 80 66 48 223 227 238 262 275 272 267 267 265 263 263 259 246 231 237 247 254 276 267 266 250 242 240 240 242 241 243
27 24 19 16 12 9 6 4 9 19 41 73 67 65 48 40 39 31 344 236 271 292 292 293 286 284 268 263 262 262 245 236 248 260 260 265 264 257 256 248 247 250 251 252
23 20 19 18 19 13 13 7 1 24 49 78 43 33 48 21 357 344 313 285 282 284 291 293 295 304 274 266 263 259 238 224 231 234 246 260 253 252 257 256 259 260 259 259
21 18 21 24 27 26 22 21 15 20 51 57 30 9 4 3 1 359 348 315 299 291 289 306 311 308 288 285 310 301 222 203 222 218 228 246 248 252 254 258 257 257 257 260
20 19 25 34 38 41 44 40 35 35 48 45 20 18 358 353 350 349 346 339 320 305 322 323 316 315 280 322 316 312 238 234 214 207 217 224 236 238 243 246 246 261 257 267
14 15 21 34 42 42 41 38 37 41 36 23 13 5 359 353 352 347 341 328 318 316 329 324 293 320 338 337 317 329 260 214 310 213 216 232 240 245 250 255 258 256 261 268
3 9 14 29 36 34 37 29 30 23 14 2 1 359 352 351 350 334 317 317 296 296 318 316 304 343 355 302 301 270 275 260 286 250 206 204 218 239 259 261 262 265 269 275
352 6 8 17 32 26 24 9 9 4 358 354 353 351 348 344 339 331 321 299 276 274 305 294 297 344 343 354 312 274 259 271 245 193 186 192 235 275 274 273 277 281 282 285
331 354 353 359 25 26 8 358 358 359 355 357 355 353 341 338 334 304 290 268 256 289 269 286 299 330 338 338 342 337 253 210 181 197 220 221 218 191 177 37 346 335 322 287
328 337 310 243 18 316 347 348 345 347 347 344 345 347 340 328 318 285 268 269 287 259 286 324 328 334 337 337 314 297 287 262 250 249 249 211 187 180 126 62 37 41 31 37
327 332 292 236 301 314 324 331 330 331 335 335 341 347 350 345 325 311 290 272 260 40 5 354 354 348 339 341 326 296 264 246 229 219 208 188 188 188 185 120 52 34 28 9
315 297 275 276 300 302 307 314 316 317 320 326 338 346 343 333 328 304 294 300 22 333 329 334 341 343 344 326 303 269 250 236 226 218 200 198 197 195 201 230 269 298 321 326
312 305 292 275 290 295 297 307 306 305 308 315 327 314 294 302 278 287 300 309 315 317 321 320 324 324 330 337 308 283 253 222 209 211 207 203 210 218 213 242 270 278 301 307